Temp
10 11 11 11 11 10 11 11 11 12 12 12 12 12 12 11 11 10 10 10 10 10 9 9 9 8 8 7 7 7 7 7 7 7 7 7 7 7 7 8 8 7 7 7 7 7 8 8 7
10 11 10 10 10 11 11 11 12 12 12 12 12 13 12 11 11 11 10 10 9 9 9 9 9 8 8 7 7 7 7 7 7 7 7 7 7 7 7 7 7 7 7 6 6 6 7 7 7
10 10 10 10 11 11 11 10 11 11 11 10 11 11 10 11 10 10 10 10 9 9 9 9 8 8 7 7 6 6 6 6 6 6 6 6 6 6 6 6 6 6 6 6 6 6 6 6 7
10 10 10 10 10 11 11 10 11 11 10 10 10 10 10 10 10 9 9 9 9 9 9 8 8 7 7 7 7 7 6 6 6 6 6 6 6 6 6 6 6 6 6 5 5 5 5 6 6
9 10 9 10 10 10 11 10 11 11 11 10 9 10 9 10 9 9 9 9 9 8 8 8 7 7 7 6 6 6 6 6 5 5 5 5 5 5 5 5 5 5 5 5 5 5 5 5 5
9 9 10 10 10 9 9 10 11 11 11 10 10 10 10 9 9 9 9 9 8 8 7 7 6 6 6 6 6 5 5 5 5 5 5 4 4 4 4 4 4 4 5 5 5 5 4 4 4
9 9 9 9 10 9 9 9 10 10 10 10 9 9 9 9 9 9 8 8 7 7 6 6 6 5 5 5 5 5 5 5 5 4 4 4 4 3 3 3 4 4 4 4 4 4 4 4 4
9 8 10 9 10 9 9 9 9 9 9 9 9 9 9 9 8 8 8 7 7 6 6 5 5 5 5 4 4 4 4 4 4 3 3 3 3 2 2 2 3 3 3 3 3 3 3 3 3
9 8 9 9 8 9 9 10 10 10 10 9 9 9 9 8 8 7 7 6 6 5 5 5 5 5 4 4 4 4 3 3 3 2 2 1 1 1 1 1 1 2 2 2 2 3 3 3 3
9 9 9 9 9 9 9 9 10 10 9 9 8 8 8 8 7 7 6 6 5 5 5 4 4 4 4 4 3 3 3 2 2 1 0 0 0 0 0 0 0 1 1 1 1 1 2 2 2
9 9 9 9 9 9 9 9 9 9 8 8 7 7 7 7 6 6 6 5 5 4 4 4 4 4 3 3 3 3 2 1 1 0 0 0 -1 -0 -1 -0 0 0 0 1 1 1 1 1 1
8 9 9 9 9 9 9 8 8 8 7 7 7 7 7 6 5 5 5 4 4 3 3 3 3 2 2 2 2 2 2 1 1 1 -1 -1 -1 -1 -1 -1 -0 -1 -1 -0 -0 0 0 0 0
9 9 9 9 8 8 8 7 7 7 6 7 7 6 6 5 4 2 1 2 2 3 2 2 1 2 2 2 1 0 -0 -0 1 0 -0 -2 -2 -2 -1 -1 -1 -1 -1 -1 -1 -1 -0 -0 -0
9 9 9 8 8 8 7 7 7 6 6 5 5 5 4 3 1 1 1 1 1 2 2 2 2 2 2 1 1 1 0 -0 -1 -2 -2 -3 -2 -2 -1 -2 -2 -2 -2 -2 -2 -1 -1 -1 -1
8 8 8 8 8 8 7 7 6 6 6 5 4 4 2 1 1 1 1 0 1 2 2 2 1 1 1 1 1 0 0 -0 -1 -2 -3 -3 -3 -3 -3 -3 -3 -3 -2 -4 -4 -4 -3 -1 -1
7 7 8 7 8 7 7 7 6 6 5 5 4 3 2 1 1 1 1 1 1 1 1 1 1 1 1 1 0 -0 -0 -1 -1 -2 -3 -3 -3 -3 -3 -3 -3 -4 -4 -4 -4 -4 -5 -3 -3
7 7 7 7 7 7 6 6 5 5 5 4 3 2 2 1 1 1 1 1 0 -0 1 1 1 1 1 0 0 -0 -0 -1 -1 -2 -3 -2 -3 -3 -3 -3 -3 -3 -3 -3 -4 -4 -4 -4 -4
7 8 8 7 7 6 6 6 5 5 4 3 2 2 2 2 1 1 1 0 -0 0 1 1 1 1 1 -0 -0 -1 -1 -2 -2 -2 -2 -3 -2 -3 -3 -3 -3 -3 -3 -3 -3 -3 -4 -4 -4
7 7 7 7 7 7 6 6 6 5 3 2 3 2 2 1 1 0 0 0 -0 -0 -0 -1 -1 -1 -1 -2 -2 -1 -2 -2 -3 -3 -4 -4 -5 -5 -5 -4 -4 -4 -4 -4 -4 -3 -4 -3 -4
7 7 7 7 7 6 6 6 5 5 5 3 3 2 2 1 1 0 -0 -0 -0 -0 -1 -2 -2 -2 -2 -2 -2 -2 -2 -2 -3 -3 -3 -3 -4 -4 -5 -5 -5 -5 -5 -5 -4 -4 -4 -4 -4
7 7 7 7 6 6 6 4 4 4 3 3 2 2 1 1 1 0 -0 -0 -0 -1 -1 -1 -1 -1 -2 -2 -2 -2 -3 -3 -2 -3 -3 -3 -3 -4 -4 -4 -5 -5 -5 -6 -6 -6 -6 -5 -5
7 7 7 7 6 6 6 4 3 3 3 2 2 2 1 1 1 0 0 0 -0 -1 -1 -1 -2 -2 -2 -2 -2 -1 -1 -2 -1 -2 -2 -3 -3 -2 -2 -3 -4 -4 -5 -6 -6 -6 -6 -6 -6
7 7 6 6 5 5 5 5 5 3 2 2 2 2 1 1 0 0 0 -0 -1 -1 -1 -2 -2 -2 -2 -2 -1 -1 -2 -2 -1 -2 -2 -2 -3 -3 -3 -3 -3 -4 -4 -5 -6 -6 -6 -6 -6
6 6 6 6 5 3 5 5 5 3 3 2 2 1 1 0 0 0 0 -0 -1 -1 -1 -1 -2 -2 -2 -2 -1 -2 -2 -2 -2 -2 -2 -2 -3 -3 -3 -4 -4 -4 -5 -5 -6 -6 -7 -7 -7
6 5 4 2 0 -1 5 4 2 2 2 1 1 0 -0 -0 -0 -0 -0 -1 -1 -2 -1 -1 -2 -2 -2 -2 -2 -2 -2 -2 -2 -2 -2 -2 -3 -3 -3 -4 -4 -5 -5 -6 -6 -6 -7 -7 -8
5 5 4 1 -1 -0 4 3 2 2 1 0 -1 -1 -1 -0 -0 -1 -1 -2 -2 -1 -1 -2 -2 -2 -2 -2 -2 -2 -2 -3 -3 -2 -2 -3 -3 -3 -4 -4 -5 -5 -6 -6 -7 -8 -8 -8 -8
4 4 4 4 3 2 2 0 -0 -0 -1 -2 -2 -2 -1 -1 -1 -1 -2 -2 -2 -1 -2 -2 -2 -2 -2 -2 -2 -2 -3 -3 -2 -3 -3 -4 -4 -4 -4 -5 -6 -7 -7 -8 -8 -8 -9 -9 -9
4 4 3 3 -1 -2 -1 -0 -0 -1 -2 -2 -3 -2 -1 -1 -1 -2 -2 -2 -2 -2 -2 -2 -3 -3 -3 -3 -3 -3 -3 -3 -3 -3 -3 -4 -4 -4 -6 -6 -7 -8 -9 -9 -10 -10 -10 -10 -11
3 3 2 2 1 -5 -4 -1 0 -1 -1 -2 -3 -2 -2 -2 -2 -2 -2 -2 -2 -2 -2 -3 -3 -3 -3 -3 -3 -3 -3 -3 -3 -3 -4 -4 -5 -6 -7 -8 -9 -9 -9 -10 -11 -11 -12 -12 -13
1 0 -1 -0 -1 -1 -3 -2 -1 -1 -3 -2 -3 -2 -2 -2 -2 -2 -2 -3 -2 -2 -3 -3 -3 -3 -3 -3 -3 -3 -3 -4 -4 -4 -4 -5 -6 -7 -8 -9 -10 -10 -11 -11 -12 -13 -13 -13 -14
Height
3164 3163 3162 3161 3165 3161 3159 3159 3159 3160 3161 3161 3161 3160 3158 3158 3159 3161 3160 3160 3161 3162 3162 3162 3162 3163 3164 3164 3165 3165 3166 3166 3166 3166 3166 3166 3165 3164 3163 3162 3162 3161 3161 3161 3161 3162 3161 3160 3161
3161 3161 3161 3159 3161 3159 3160 3159 3158 3158 3158 3160 3160 3157 3157 3156 3158 3159 3160 3160 3161 3162 3162 3162 3162 3163 3163 3164 3164 3164 3164 3164 3164 3164 3163 3163 3163 3162 3161 3160 3160 3160 3159 3158 3158 3159 3159 3159 3159
3159 3160 3160 3158 3159 3159 3159 3157 3155 3156 3157 3159 3158 3158 3158 3158 3159 3159 3159 3160 3161 3161 3161 3162 3162 3162 3162 3163 3163 3163 3163 3163 3163 3162 3161 3160 3160 3159 3159 3158 3157 3157 3157 3157 3157 3157 3157 3156 3157
3158 3159 3159 3158 3159 3159 3159 3156 3153 3153 3156 3158 3157 3158 3159 3158 3158 3159 3159 3160 3160 3161 3161 3161 3161 3162 3162 3162 3162 3161 3161 3160 3159 3159 3159 3158 3158 3157 3156 3155 3154 3154 3154 3154 3155 3155 3155 3154 3153
3157 3157 3157 3157 3159 3157 3156 3155 3154 3153 3154 3155 3156 3156 3157 3157 3158 3159 3159 3159 3160 3160 3160 3160 3160 3160 3160 3160 3160 3159 3158 3158 3157 3156 3155 3155 3154 3153 3153 3152 3151 3151 3151 3151 3151 3152 3153 3153 3151
3156 3156 3156 3155 3154 3156 3154 3154 3152 3152 3152 3153 3155 3155 3155 3156 3157 3158 3159 3159 3159 3159 3159 3159 3159 3159 3159 3158 3158 3157 3156 3155 3154 3152 3151 3150 3150 3150 3149 3148 3148 3148 3148 3148 3147 3148 3149 3150 3149
3154 3154 3153 3153 3152 3154 3154 3153 3152 3151 3151 3153 3153 3154 3155 3155 3156 3157 3157 3158 3158 3158 3158 3158 3158 3158 3157 3156 3155 3155 3153 3151 3150 3149 3147 3146 3145 3145 3144 3144 3144 3144 3144 3144 3144 3144 3145 3146 3145
3153 3153 3152 3150 3146 3152 3152 3152 3150 3151 3150 3151 3150 3151 3152 3154 3154 3155 3155 3156 3156 3156 3156 3156 3156 3155 3155 3154 3152 3152 3150 3148 3146 3144 3143 3142 3141 3140 3139 3139 3139 3138 3138 3139 3140 3141 3141 3142 3142
3152 3152 3150 3150 3148 3147 3150 3152 3151 3150 3149 3149 3149 3149 3151 3152 3152 3152 3153 3154 3154 3155 3154 3154 3154 3152 3151 3151 3149 3147 3146 3143 3142 3140 3138 3138 3137 3137 3135 3134 3133 3133 3133 3134 3134 3136 3137 3138 3138
3151 3151 3149 3149 3149 3149 3151 3152 3152 3152 3150 3149 3149 3147 3148 3149 3150 3150 3151 3151 3152 3152 3153 3152 3151 3151 3148 3146 3145 3142 3141 3140 3139 3136 3134 3133 3133 3133 3132 3130 3130 3130 3130 3130 3130 3130 3132 3134 3135
3149 3148 3148 3148 3148 3148 3149 3150 3151 3151 3150 3148 3147 3146 3147 3147 3148 3148 3148 3149 3150 3149 3149 3149 3147 3145 3143 3142 3140 3138 3136 3135 3134 3133 3131 3128 3128 3129 3128 3127 3127 3126 3127 3127 3126 3127 3128 3129 3130
3147 3145 3145 3147 3148 3146 3145 3146 3146 3146 3146 3145 3145 3144 3145 3145 3145 3146 3146 3146 3146 3146 3146 3145 3144 3141 3137 3135 3134 3133 3132 3130 3128 3127 3126 3125 3125 3124 3124 3123 3122 3122 3122 3122 3123 3123 3123 3124 3126
3143 3143 3145 3145 3146 3146 3144 3143 3144 3143 3144 3143 3143 3143 3143 3143 3144 3144 3144 3143 3143 3143 3143 3141 3140 3138 3136 3133 3130 3128 3126 3124 3123 3122 3121 3121 3121 3120 3118 3118 3119 3118 3118 3117 3118 3118 3119 3119 3120
3142 3142 3143 3142 3143 3143 3144 3142 3141 3139 3139 3141 3141 3141 3141 3141 3144 3145 3144 3144 3141 3141 3141 3139 3137 3135 3134 3131 3129 3126 3124 3123 3121 3118 3118 3117 3117 3116 3116 3114 3114 3114 3113 3113 3113 3112 3112 3113 3114
3142 3142 3141 3141 3141 3141 3141 3139 3138 3138 3138 3138 3139 3139 3139 3141 3142 3143 3142 3141 3139 3138 3138 3136 3134 3132 3131 3129 3127 3124 3122 3120 3118 3117 3116 3114 3114 3112 3111 3110 3108 3107 3106 3106 3105 3106 3105 3106 3105
3141 3141 3139 3138 3139 3140 3141 3139 3138 3138 3137 3137 3138 3138 3139 3142 3143 3143 3141 3139 3138 3136 3134 3133 3132 3130 3128 3126 3123 3121 3119 3117 3114 3112 3111 3110 3108 3107 3105 3104 3104 3104 3102 3101 3101 3101 3100 3100 3101
3136 3136 3136 3137 3137 3137 3137 3136 3136 3137 3137 3135 3135 3137 3137 3139 3140 3140 3139 3136 3135 3133 3132 3131 3130 3128 3125 3122 3121 3119 3116 3114 3112 3110 3107 3105 3102 3100 3098 3098 3098 3097 3096 3095 3094 3094 3094 3093 3093
3132 3133 3133 3134 3135 3133 3133 3133 3133 3133 3134 3134 3135 3135 3134 3136 3138 3137 3136 3134 3132 3130 3128 3127 3126 3124 3122 3119 3117 3114 3112 3110 3107 3103 3101 3098 3096 3094 3090 3090 3090 3089 3087 3087 3087 3086 3085 3085 3085
3131 3130 3130 3129 3129 3130 3129 3129 3131 3131 3130 3133 3133 3133 3132 3133 3134 3135 3135 3132 3130 3128 3126 3124 3122 3119 3117 3115 3114 3111 3108 3105 3101 3097 3095 3092 3089 3086 3083 3082 3080 3079 3080 3079 3078 3077 3076 3076 3077
3129 3128 3126 3127 3127 3128 3128 3127 3128 3128 3129 3129 3130 3129 3129 3130 3132 3133 3132 3130 3128 3127 3124 3122 3120 3118 3116 3114 3110 3108 3105 3100 3096 3091 3086 3083 3080 3077 3075 3073 3070 3069 3068 3067 3066 3065 3063 3064 3066
3126 3124 3123 3126 3127 3126 3125 3126 3125 3126 3128 3129 3128 3128 3127 3128 3129 3130 3128 3127 3126 3124 3123 3121 3119 3117 3113 3110 3106 3101 3097 3093 3089 3085 3079 3074 3071 3067 3065 3062 3059 3057 3055 3053 3052 3051 3050 3050 3052
3125 3123 3121 3122 3124 3125 3124 3121 3120 3121 3123 3124 3124 3125 3125 3126 3127 3126 3127 3125 3123 3122 3120 3117 3114 3111 3107 3103 3098 3094 3090 3086 3080 3076 3072 3067 3062 3058 3054 3050 3047 3045 3043 3041 3040 3038 3036 3035 3035
3123 3122 3121 3120 3121 3122 3121 3121 3114 3119 3119 3119 3119 3120 3122 3124 3124 3124 3125 3123 3120 3118 3115 3112 3109 3105 3100 3096 3092 3088 3084 3078 3072 3066 3062 3058 3053 3048 3044 3039 3035 3032 3030 3027 3025 3024 3023 3022 3022
3120 3120 3119 3118 3118 3117 3116 3116 3113 3113 3114 3114 3114 3116 3119 3120 3120 3121 3121 3119 3117 3114 3111 3108 3105 3100 3096 3090 3086 3082 3077 3071 3065 3059 3054 3050 3046 3042 3036 3030 3024 3019 3015 3012 3010 3008 3008 3007 3006
3117 3118 3117 3119 3118 3115 3111 3111 3109 3111 3115 3118 3102 3110 3115 3116 3117 3118 3117 3116 3113 3111 3108 3103 3099 3094 3090 3085 3080 3075 3070 3063 3057 3051 3046 3041 3036 3032 3027 3021 3014 3008 3003 2999 2996 2993 2992 2992 2991
3115 3116 3114 3118 3118 3111 3109 3108 3107 3108 3108 3106 3104 3105 3113 3115 3115 3115 3114 3112 3109 3106 3102 3098 3093 3088 3084 3080 3075 3069 3062 3056 3050 3043 3037 3031 3025 3020 3014 3008 3002 2997 2992 2988 2983 2980 2979 2977 2976
3113 3112 3113 3110 3109 3108 3108 3107 3107 3106 3106 3108 3111 3114 3113 3113 3112 3111 3111 3107 3103 3101 3097 3093 3088 3083 3078 3075 3070 3063 3057 3050 3043 3036 3029 3023 3017 3010 3003 2995 2989 2984 2980 2975 2971 2968 2966 2964 2964
3111 3111 3110 3108 3108 3110 3105 3104 3104 3106 3108 3108 3110 3111 3112 3111 3110 3109 3107 3103 3098 3096 3092 3088 3083 3078 3074 3069 3063 3057 3051 3043 3036 3029 3022 3015 3008 3000 2992 2985 2978 2972 2968 2964 2960 2957 2954 2952 2952
3108 3106 3106 3105 3104 3104 3106 3104 3103 3104 3106 3106 3109 3110 3110 3109 3109 3107 3103 3098 3094 3091 3087 3083 3079 3074 3069 3064 3058 3052 3045 3037 3029 3021 3014 3007 2999 2991 2984 2975 2968 2963 2958 2953 2949 2946 2945 2943 2941
3105 3105 3107 3104 3104 3101 3103 3101 3101 3104 3106 3107 3108 3110 3108 3107 3106 3103 3099 3095 3091 3088 3084 3079 3075 3070 3064 3059 3053 3046 3038 3030 3023 3016 3007 2998 2991 2983 2974 2966 2960 2954 2949 2944 2940 2937 2935 2933 2931
Wind_Speed
7 5 7 9 6 2 9 3 7 7 6 5 8 8 10 5 2 5 10 7 7 4 3 3 2 4 6 7 9 10 11 12 13 13 14 13 13 12 11 10 11 10 9 8 5 5 3 3 5
7 5 6 9 5 3 6 10 6 4 5 1 9 12 9 5 6 13 10 8 5 3 3 2 1 2 4 7 8 10 11 12 13 14 14 14 14 15 15 14 12 12 11 9 7 7 6 3 4
7 5 5 5 4 5 6 13 9 12 8 2 7 5 4 2 2 6 7 5 4 4 4 4 5 4 5 6 7 9 10 11 13 14 15 16 15 16 15 15 13 13 13 11 9 10 8 8 6
8 7 7 7 5 7 4 15 10 10 10 7 6 3 3 4 3 3 3 3 3 4 4 6 6 7 7 7 6 7 8 10 11 13 15 16 17 18 17 16 15 14 14 13 11 11 11 10 10
8 8 8 6 11 15 7 21 14 12 6 5 4 2 1 2 2 2 3 4 5 6 6 6 5 5 5 6 8 9 10 12 13 15 16 17 18 18 18 18 17 17 17 15 14 13 14 13 13
9 6 4 5 13 21 19 17 14 10 8 4 1 7 6 0 1 3 4 6 5 4 5 5 5 5 6 7 9 10 12 14 15 17 19 18 17 19 20 20 20 19 19 18 17 17 17 16 15
11 5 7 15 17 13 18 14 7 6 6 2 2 6 3 4 5 5 5 4 4 4 4 4 5 6 9 12 14 16 17 19 19 21 22 21 21 20 19 20 21 22 20 19 19 19 19 19 18
3 8 8 15 15 20 18 13 11 5 1 5 7 4 4 6 7 6 5 4 5 5 5 6 8 11 13 16 18 19 20 21 22 21 20 20 20 19 18 18 21 22 22 21 20 20 21 21 20
2 6 11 3 13 20 13 9 9 8 8 9 4 3 7 8 7 7 6 7 6 5 6 10 12 16 18 20 21 21 21 20 21 22 23 20 18 19 21 20 20 22 22 22 21 22 22 22 21
5 6 4 2 4 7 7 6 8 8 12 6 4 6 8 6 7 7 7 7 6 7 8 12 15 16 19 21 21 23 23 19 20 20 18 18 20 19 17 18 19 20 21 20 20 20 21 21 21
6 12 9 5 5 9 9 11 11 9 9 7 7 6 5 5 6 8 7 7 8 12 15 17 21 23 23 22 22 22 23 23 21 19 16 20 18 14 13 14 15 16 19 20 20 20 19 19 21
16 15 14 13 11 11 12 10 6 5 6 8 5 9 7 6 7 9 6 7 11 14 15 18 20 21 22 22 23 22 21 20 20 20 20 13 16 19 16 14 14 13 15 17 20 22 21 21 20
6 19 14 14 10 12 11 7 5 5 7 8 9 9 7 8 7 3 7 10 13 14 16 18 14 17 18 20 19 20 20 22 21 21 15 16 22 21 21 18 16 16 18 17 18 20 22 22 22
7 12 12 10 10 11 12 14 13 5 3 5 5 5 8 9 3 8 7 7 13 15 15 13 16 14 14 15 16 17 17 18 17 18 18 21 27 20 23 21 20 21 20 21 21 22 22 22 24
7 10 10 11 13 18 9 8 2 3 5 4 3 5 6 5 10 9 9 16 16 15 14 16 16 15 16 19 18 18 18 18 15 14 14 20 22 21 18 16 19 17 18 21 22 20 26 23 24
10 11 14 16 15 8 6 7 5 6 6 7 9 7 4 6 10 13 16 17 12 15 18 16 17 19 17 16 18 19 19 18 17 16 16 15 16 18 18 20 19 15 17 18 22 21 23 29 25
13 17 18 12 16 14 11 10 9 10 11 7 6 8 10 11 10 10 15 14 15 19 15 15 17 18 19 20 19 20 22 22 22 22 22 21 22 29 21 24 27 25 26 24 23 25 25 25 28
20 17 13 17 22 20 14 14 13 10 9 6 9 10 11 11 8 12 16 17 19 21 17 18 21 22 22 24 26 27 27 28 30 31 31 31 29 29 28 27 29 33 27 31 33 31 33 29 30
14 15 17 20 21 24 20 16 20 17 12 16 17 14 13 8 5 9 14 17 20 24 22 24 27 30 31 31 31 30 30 31 33 37 38 38 39 40 39 41 40 42 39 39 35 38 35 36 38
19 21 20 14 19 22 22 17 23 21 17 16 23 17 11 10 9 9 13 16 22 25 23 26 29 32 32 29 30 29 26 28 30 34 35 36 39 42 47 49 51 51 49 51 50 51 52 49 48
8 7 10 7 18 16 11 16 20 21 20 21 16 16 15 15 14 13 14 20 25 25 27 31 30 25 27 29 28 28 29 31 33 35 36 37 38 41 44 47 48 50 53 54 54 56 58 57 54
11 9 11 9 13 17 16 7 28 26 23 24 20 23 22 17 17 18 22 24 26 29 28 25 27 27 28 27 28 30 31 32 34 32 30 32 34 34 36 39 46 49 52 54 55 57 59 59 58
14 13 7 4 10 11 15 9 15 30 29 27 27 23 20 20 18 18 23 25 26 26 25 27 27 26 27 27 29 29 30 31 32 30 29 28 30 32 35 36 37 41 44 48 54 57 58 60 64
13 10 13 13 8 5 19 17 7 30 35 34 30 24 22 19 19 22 24 27 24 24 25 25 24 24 26 27 30 29 31 33 34 32 29 29 30 31 34 38 42 44 46 46 48 52 55 56 57
14 13 4 3 2 5 7 7 9 9 19 27 32 26 21 20 18 21 24 25 25 25 24 23 22 24 25 27 29 31 31 33 34 35 32 32 31 32 34 36 37 40 42 44 46 47 49 52 56
9 9 7 6 3 4 5 2 6 7 22 31 21 15 14 13 17 22 23 25 27 25 23 22 23 25 26 28 30 31 33 34 37 35 34 34 36 37 38 38 38 37 36 38 41 43 43 44 46
10 11 14 18 11 3 4 3 5 5 11 10 11 11 10 19 18 21 24 26 27 24 22 22 24 26 27 29 30 30 32 36 36 35 36 36 36 39 40 40 40 37 35 35 37 38 38 39 40
12 16 12 12 1 2 2 5 4 15 16 18 10 11 12 16 19 22 24 30 26 23 22 22 25 26 28 30 31 32 32 35 37 36 36 36 37 40 42 41 40 37 35 33 33 33 33 34 33
10 9 4 8 6 4 2 2 13 23 17 12 16 12 11 15 18 23 29 28 25 23 22 23 25 27 28 29 31 31 33 36 38 38 36 36 39 41 41 40 36 34 33 32 31 30 30 31 32
3 2 11 5 5 1 5 4 11 14 19 16 7 10 13 14 21 27 28 25 24 22 21 21 24 27 30 32 32 33 36 38 39 38 36 37 40 41 40 37 33 32 31 30 29 28 27 28 30
Wind_Direction
256 273 285 295 296 267 343 22 178 228 253 358 330 334 332 28 180 230 168 160 158 162 141 152 194 207 227 239 246 252 258 265 267 267 269 269 270 271 271 263 256 257 252 243 219 202 171 310 297
235 260 274 282 266 307 81 129 155 116 111 86 302 305 319 319 81 128 139 141 128 102 75 52 1 292 266 262 265 273 275 277 280 284 284 283 283 285 284 275 266 260 256 246 226 213 189 187 271
221 242 260 234 244 2 335 144 158 129 113 133 277 287 279 267 172 129 121 104 73 42 13 344 328 310 303 300 296 298 299 297 295 294 292 290 289 288 285 278 269 263 261 253 236 218 201 190 210
212 213 219 251 277 344 333 164 168 143 143 181 195 209 235 258 171 115 85 64 18 341 322 310 321 327 329 325 318 306 298 295 292 291 289 289 287 284 282 278 274 264 259 252 238 224 219 206 200
204 225 246 301 337 352 238 182 192 208 211 203 155 127 251 152 207 273 309 325 320 314 314 314 313 311 308 310 310 308 307 305 304 300 297 295 294 290 287 282 275 268 258 250 240 229 223 219 211
185 209 203 304 326 342 159 185 206 205 191 205 220 353 6 280 254 280 286 297 313 316 311 308 305 312 321 323 324 323 321 316 313 311 309 305 298 292 288 285 277 269 258 249 239 231 225 223 221
183 235 277 317 330 164 161 168 186 168 171 222 335 318 326 268 269 280 281 289 279 276 277 289 312 321 327 328 324 322 319 316 312 309 308 307 305 300 289 280 276 271 265 253 243 234 229 226 225
156 306 324 333 306 167 162 182 128 147 215 335 327 304 316 290 272 279 275 266 273 285 298 310 321 325 323 322 317 315 313 312 312 312 309 307 303 300 293 281 271 265 258 253 247 237 232 231 230
279 282 321 15 148 158 167 211 212 234 299 315 279 284 317 296 275 272 271 274 278 294 305 311 312 314 317 316 313 311 310 312 311 307 307 310 307 305 294 279 268 262 254 247 239 238 233 231 232
205 276 257 185 143 170 197 213 244 261 291 300 218 304 308 276 249 258 267 272 285 287 296 305 311 315 316 314 308 305 305 307 308 305 301 304 297 295 293 287 279 271 259 248 242 234 233 231 233
245 250 232 210 249 255 267 280 284 267 272 261 292 312 307 275 260 268 272 283 285 296 308 316 321 317 314 309 305 305 306 309 310 305 297 302 292 297 290 281 275 270 268 265 253 245 241 234 232
304 253 229 238 255 261 265 267 260 249 261 283 284 302 281 254 250 252 274 294 302 306 318 324 320 319 320 316 309 308 308 313 312 313 311 304 293 298 296 279 275 275 271 268 267 260 248 243 240
293 231 223 247 247 279 273 259 259 236 222 246 268 272 269 257 267 264 287 303 303 314 328 325 327 321 322 322 315 314 318 317 320 323 319 311 305 301 302 295 278 267 264 265 266 266 263 252 248
265 232 251 254 261 280 281 271 287 269 218 215 234 264 281 305 327 288 291 303 308 323 318 321 326 330 331 324 319 320 318 317 311 316 312 307 302 298 292 283 286 274 272 273 269 262 252 248 249
238 244 257 269 280 295 255 243 272 278 238 243 278 305 330 317 292 287 278 307 315 310 324 333 332 329 320 313 315 315 315 315 315 306 293 291 294 303 300 303 295 289 283 273 282 276 277 262 260
243 249 266 264 282 243 211 259 266 271 262 272 300 325 274 283 284 272 299 316 316 322 325 326 315 314 313 314 317 321 315 316 314 307 308 302 303 296 299 301 307 287 294 282 271 278 272 258 266
243 250 258 241 251 257 223 260 254 252 255 269 287 269 263 281 304 308 321 331 338 330 315 310 309 316 323 329 328 324 322 322 319 310 306 281 284 273 277 278 281 278 265 275 275 264 261 264 257
247 252 248 237 237 233 237 251 261 248 223 216 231 250 264 285 290 310 324 325 329 329 321 322 323 325 326 328 327 326 322 318 314 307 303 299 290 286 287 272 282 289 258 261 258 257 252 255 259
284 262 262 272 238 229 230 243 261 254 214 214 233 248 256 271 271 295 306 314 318 319 317 321 320 322 324 324 321 316 314 309 303 298 294 289 288 289 288 285 281 281 275 273 275 269 270 254 269
270 266 276 222 202 213 241 244 235 239 245 237 230 237 241 232 256 264 279 298 303 306 313 313 311 307 307 311 309 306 304 298 295 291 287 282 278 275 273 276 278 277 276 275 273 273 271 270 270
231 253 222 234 218 219 241 221 226 220 210 218 214 232 225 238 253 253 272 284 297 304 298 296 299 306 309 308 307 302 298 296 295 292 287 284 281 279 276 272 268 267 269 271 271 272 272 271 272
275 256 243 234 212 215 224 243 217 210 204 206 214 210 219 228 233 250 272 285 293 291 293 305 312 309 305 304 303 305 308 309 307 302 293 286 286 286 285 279 271 269 263 261 263 264 266 268 268
263 256 271 232 224 248 242 249 248 205 204 204 201 206 219 227 233 256 272 282 292 297 304 309 308 307 303 304 306 308 309 317 319 312 306 303 299 297 294 290 284 277 273 268 264 262 263 264 265
265 250 262 282 275 244 270 248 230 207 212 202 203 209 214 226 247 261 274 290 299 304 307 308 306 301 303 310 312 310 312 318 321 315 309 305 302 299 299 296 292 286 280 274 269 264 262 263 262
265 275 300 313 301 228 279 263 235 242 215 205 188 198 212 231 246 266 281 297 306 307 306 305 306 303 309 315 315 314 317 320 323 319 312 310 308 307 306 304 297 289 283 278 274 269 264 260 258
258 253 214 205 216 246 282 267 269 274 211 204 210 195 212 243 269 281 293 307 308 309 309 310 308 309 315 320 321 320 321 325 323 318 315 315 314 313 313 312 306 296 287 279 276 274 271 268 264
247 244 266 260 258 261 218 205 185 202 151 141 163 198 242 270 275 291 305 313 310 311 311 312 311 315 320 325 323 326 326 325 325 322 318 316 312 314 318 317 312 303 295 286 277 274 272 268 266
281 278 273 276 112 252 222 196 196 171 186 194 210 234 250 272 288 298 310 317 313 313 316 318 315 320 322 325 329 330 330 332 327 322 318 315 317 321 321 319 312 304 300 293 285 280 276 273 270
281 249 271 268 241 180 185 205 195 188 200 164 196 240 258 270 285 307 317 317 313 317 322 322 320 321 322 329 333 330 331 330 331 325 320 321 325 325 323 319 312 307 305 299 293 287 281 277 276
44 5 336 0 280 196 342 155 177 202 182 205 188 246 265 291 305 316 319 316 315 320 323 325 319 325 330 334 336 332 333 334 332 328 327 329 329 328 325 320 315 313 309 304 300 294 288 283 279